UK-DMC 2

Last updated on Tue Oct 21 2025 00:02:41 GMT+0000 (Coordinated Universal Time)

1 35683U 09041C 25293.61361641 .00002063 00000+0 31075-3 0 9997 2 35683 97.8517 70.0385 0001252 80.3507 279.7844 14.75445900871231
UTC large
Height (km)
Speed (km/s)
/
Latitude / Longitude
Inclination (degrees)
Orbital Period (minutes)
Azimuth
Elevation
Range (km)
Doppler Factor

Next 0 passes for location: London (51.5072 / 0.1276)

Sorry there are no passes over London.